Tracking 28799 objects as of 18-Apr-2024
HD Live streaming from Space Station
objects crossing your sky now

THORAD AGENA D DEB

Track THORAD AGENA D DEB now!
10-day predictions


NORAD ID: 4738
Int'l Code: 1970-025CM
Perigee: 830.8 km
Apogee: 902.5 km
Inclination: 100.1 °
Period: 102.1 minutes
Semi major axis: 7237 km
RCS: 0.0155 m2 (small)
Launch date: April 8, 1970
Source: United States (US)
Launch site: AIR FORCE WESTERN TEST RANGE (AFWTR)

Note: This is SATELLITE DEBRIS
Your satellite tracking list
Your tracking list is empty




NASA's NSSDC Master Catalog

Two Line Element Set (TLE):
1 04738U 70025CM  24108.60558907  .00004740  00000-0  26871-2 0  9992
2 04738 100.0839   0.9341 0049518 273.6957  85.8548 14.09966281728605
Source of the keplerian elements: AFSPC